DW1009 Weather Reports


Display with metric or nautical units.
time (UTC)temp
F
wind
direction
speed
MPH
gust
MPH
rain 1hr
in
rain 24hr
in
rain mn
in
humidity
%
barometer
mb
20260903205114 77 183 2.0 11.0 0.00 0.00 0.00 73 1011.0
20260903204115 77 152 4.0 11.0 0.00 0.00 0.00 72 1011.1
20260903203115 77 276 4.0 10.0 0.00 0.00 0.00 73 1011.0
20260903202115 78 229 4.0 7.0 0.00 0.00 0.00 72 1011.1
20260903201115 78 290 5.0 9.0 0.00 0.00 0.00 72 1011.2
20260903200145 78 235 3.0 9.0 0.00 0.00 0.00 72 1011.2
20260903195114 78 188 4.0 7.0 0.00 0.00 0.00 72 1011.3
20260903194115 78 306 4.0 8.0 0.00 0.00 0.00 72 1011.5
20260903193115 77 211 1.0 7.0 0.00 0.00 0.00 73 1011.8
20260903191114 76 284 4.0 9.0 0.00 0.00 0.00 74 1011.8
20260903190144 76 224 5.0 9.0 0.00 0.00 0.00 74 1011.9
20260903185115 76 205 3.0 10.0 0.00 0.00 0.00 75 1012.1
20260903184114 75 234 3.0 8.0 0.00 0.00 0.00 75 1012.2
20260903183114 76 227 5.0 9.0 0.00 0.00 0.00 74 1012.3
20260903182114 76 241 3.0 7.0 0.00 0.00 0.00 74 1012.5
20260903181144 76 157 2.0 7.0 0.00 0.00 0.00 74 1012.5
20260903175144 75 320 3.0 8.0 0.00 0.00 0.00 75 1012.4
20260903174144 74 231 3.0 8.0 0.00 0.00 0.00 75 1012.4
20260903173144 74 217 4.0 7.0 0.00 0.00 0.00 75 1012.5
20260903172114 74 244 4.0 8.0 0.00 0.00 0.00 75 1012.5
20260903171144 73 252 3.0 6.0 0.00 0.00 0.00 77 1012.3
20260903170144 72 253 2.0 5.0 0.00 0.00 0.00 80 1012.3
20260903162114 71 170 2.0 7.0 0.00 0.00 0.00 81 1012.1
20260903161144 71 224 1.0 4.0 0.00 0.00 0.00 81 1012.3
20260903160144 71 266 0.0 5.0 0.00 0.00 0.00 82 1012.2
20260903154144 71 223 1.0 4.0 0.00 0.00 0.00 82 1012.2
20260903153144 70 174 1.0 4.0 0.00 0.00 0.00 83 1012.3
20260903151144 69 141 1.0 4.0 0.00 0.00 0.00 86 1012.2
20260903150144 69 207 2.0 3.0 0.00 0.00 0.00 86 1012.1
20260903145144 69 200 1.0 2.0 0.00 0.00 0.00 85 1012.1
20260903144114 69 191 1.0 3.0 0.00 0.00 0.00 85 1011.9
20260903143144 69 213 2.0 4.0 0.00 0.00 0.00 86 1011.8
20260903141144 68 177 1.0 4.0 0.00 0.00 0.00 87 1011.5
20260903140144 68 190 0.0 4.0 0.00 0.00 0.00 87 1011.4
20260903135114 68 241 1.0 5.0 0.00 0.00 0.00 88 1011.3
20260903134144 67 197 1.0 2.0 0.00 0.00 0.00 89 1011.3
20260903133143 67 158 1.0 2.0 0.00 0.00 0.00 89 1011.3
20260903132113 67 213 1.0 2.0 0.00 0.00 0.00 88 1011.3
20260903131143 68 215 2.0 2.0 0.00 0.00 0.00 89 1011.3
20260903130143 68 188 0.0 3.0 0.00 0.00 0.00 89 1011.2
20260903125144 68 221 3.0 3.0 0.00 0.00 0.00 89 1011.2
20260903124113 68 172 0.0 2.0 0.00 0.00 0.00 89 1011.2
20260903121144 68 193 0.0 2.0 0.00 0.00 0.00 88 1011.3
20260903120143 68 170 0.0 5.0 0.00 0.00 0.00 88 1011.3
20260903115115 68 170 0.0 4.0 0.00 0.00 0.00 88 1011.4
20260903114143 68 167 4.0 4.0 0.00 0.00 0.00 88 1011.6
20260903113143 68 166 1.0 4.0 0.00 0.00 0.00 88 1011.5
20260903110143 68 184 1.0 3.0 0.00 0.00 0.00 90 1011.6
20260903105144 68 214 2.0 4.0 0.00 0.00 0.00 90 1011.6
20260903104143 68 252 0.0 5.0 0.00 0.00 0.00 90 1011.6
20260903103143 68 261 3.0 5.0 0.00 0.00 0.00 90 1011.7
20260903102144 68 242 4.0 5.0 0.00 0.00 0.00 90 1011.7
20260903101113 68 236 3.0 6.0 0.00 0.00 0.00 90 1011.8
20260903100143 68 214 1.0 4.0 0.00 0.00 0.00 90 1011.9
20260903094144 68 213 1.0 3.0 0.00 0.00 0.00 90 1012.1
20260903092113 68 270 1.0 3.0 0.00 0.00 0.00 90 1012.2
20260903091143 68 313 0.0 3.0 0.00 0.00 0.00 90 1012.3
20260903090114 68 230 0.0 2.0 0.00 0.00 0.00 89 1012.4
20260903085113 69 325 0.0 3.0 0.00 0.00 0.00 89 1012.3
20260903084144 69 269 0.0 3.0 0.00 0.00 0.00 89 1012.4
20260903083143 69 84 0.0 2.0 0.00 0.00 0.00 90 1012.5
20260903082143 69 325 1.0 3.0 0.00 0.00 0.00 90 1012.5
20260903081143 69 313 1.0 3.0 0.00 0.00 0.00 89 1012.6
20260903080143 69 272 0.0 3.0 0.00 0.00 0.00 89 1012.6
20260903074143 69 283 2.0 4.0 0.00 0.00 0.00 88 1012.7
20260903073113 69 239 0.0 3.0 0.00 0.00 0.00 88 1012.7
20260903072143 69 273 0.0 5.0 0.00 0.00 0.00 88 1012.7
20260903071113 69 237 0.0 6.0 0.00 0.00 0.00 87 1012.6
20260903070143 69 285 1.0 3.0 0.00 0.00 0.00 88 1012.4
20260903065143 69 299 0.0 7.0 0.00 0.00 0.00 88 1012.5
20260903064113 69 196 0.0 3.0 0.00 0.00 0.00 88 1012.5
20260903063143 69 267 0.0 3.0 0.00 0.00 0.00 87 1012.3
20260903062143 69 246 0.0 3.0 0.00 0.00 0.00 87 1012.3
20260903061143 70 331 1.0 5.0 0.00 0.00 0.00 86 1012.3
20260903055143 70 294 1.0 5.0 0.00 0.00 0.00 84 1012.4
20260903054143 70 270 2.0 7.0 0.00 0.00 0.00 84 1012.4
20260903053143 70 314 2.0 8.0 0.00 0.00 0.00 82 1012.4
20260903052144 70 360 2.0 8.0 0.00 0.00 0.00 83 1012.3
20260903051113 71 339 1.0 8.0 0.00 0.00 0.00 82 1012.2
20260903050143 71 344 4.0 9.0 0.00 0.00 0.00 82 1012.2
20260903045142 71 335 2.0 10.0 0.00 0.00 0.00 81 1012.2
20260903044142 71 285 2.0 12.0 0.00 0.00 0.00 79 1012.1
20260903043143 72 10 2.0 11.0 0.00 0.00 0.00 80 1012.0
20260903042143 72 333 1.0 6.0 0.00 0.00 0.00 79 1012.0
20260903040142 71 185 2.0 6.0 0.00 0.00 0.00 81 1011.8
20260903035113 71 198 1.0 8.0 0.00 0.00 0.00 82 1011.8
20260903034142 71 217 4.0 8.0 0.00 0.00 0.00 83 1011.8
20260903033143 71 218 4.0 9.0 0.00 0.00 0.00 85 1011.8
20260903031142 71 192 4.0 6.0 0.00 0.00 0.00 83 1011.7
20260903025112 72 308 0.0 4.0 0.00 0.00 0.00 80 1011.7
20260903023112 72 182 1.0 5.0 0.00 0.00 0.00 77 1011.8
20260903022143 72 164 0.0 5.0 0.00 0.00 0.00 76 1011.8
20260903021143 72 232 2.0 8.0 0.00 0.00 0.00 76 1011.8
20260903020142 73 314 2.0 7.0 0.00 0.00 0.00 74 1011.8
20260903015142 73 324 1.0 8.0 0.00 0.00 0.00 71 1011.7
20260903014143 73 248 8.0 9.0 0.00 0.00 0.00 73 1011.7
20260903013142 74 264 3.0 8.0 0.00 0.00 0.00 74 1011.8
20260903012142 74 283 2.0 8.0 0.00 0.00 0.00 73 1011.9
20260903005112 75 280 6.0 10.0 0.00 0.00 0.00 73 1011.9
20260903004112 75 248 3.0 7.0 0.00 0.00 0.00 74 1011.9
20260903002142 75 326 3.0 8.0 0.00 0.00 0.00 74 1012.0
20260903001112 75 265 6.0 10.0 0.00 0.00 0.00 75 1012.0
20260903000143 76 272 4.0 9.0 0.00 0.00 0.00 74 1012.1
20260902235112 76 262 1.0 13.0 0.00 0.00 0.00 72 1012.3
20260902234142 76 176 4.0 9.0 0.00 0.00 0.00 72 1012.4
20260902231142 77 273 1.0 9.0 0.00 0.00 0.00 72 1012.4
20260902225112 77 271 2.0 10.0 0.00 0.00 0.00 73 1012.6
20260902223112 78 306 3.0 9.0 0.00 0.00 0.00 70 1012.7
20260902222142 77 276 2.0 10.0 0.00 0.00 0.00 68 1012.9
20260902221111 78 236 1.0 9.0 0.00 0.00 0.00 66 1012.8
20260902220142 77 339 2.0 10.0 0.00 0.00 0.00 67 1012.9
20260902214141 77 260 2.0 8.0 0.00 0.00 0.00 66 1013.2
20260902213142 77 312 2.0 8.0 0.00 0.00 0.00 66 1013.2
20260902212142 77 222 4.0 9.0 0.00 0.00 0.00 66 1013.3
20260902211142 77 253 3.0 12.0 0.00 0.00 0.00 66 1013.3
20260902210142 77 230 1.0 9.0 0.00 0.00 0.00 67 1013.3